轨道通信卫星FM116星 (ORBCOMM FM116)

导读 | 星芒AI

ORBCOMM FM116 是一颗由 ORBCOMM 公司运营的低轨(LEO)卫星,主要用于提供全球范围的物联网(IoT)和机器对机器(M2M)通信服务。该卫星运行在约 500 公里的轨道高度,支持远程监控、资产追踪和环境监测等应用。FM116 是 ORBCOMM 通信网络的一部分,采用窄带通信技术,专为低功耗设备设计,广泛应用于物流、能源和农业等领域。

基本信息
目录编号:
41189
目录名称:
ORBCOMM FM 116
国际标识:
2015-081L
轨道中心:
EARTH
卫星名称:
轨道通信卫星FM116星
卫星全名:
轨道通信卫星FM116星 (ORBCOMM FM116)
卫星状态:
在轨 (已飞行3699 天)
发射日期:
2015-12-22 UTC
国别 :
(ORB)
星等 :
--
轨道信息
数据来源 国际轨道数据 AOE轨道数据
星历时间 2026-02-06T03:11:47+0800
18小时前
查看轨道信息
2026-01-31T10:00:00+0800
6天前
查看轨道信息
半长轴 7075.683km 7075.692km
偏心率 0.000201 0.0001605
轨道倾角 47.001° 47.000°
近地点辐角 194.387° 171.968°
升交点赤经 171.758° 198.779°
平近点角 165.696° 23.867°
近地点 696.123km 696.419km
远地点 698.969km 698.691km
周期 98.722分钟 98.722分钟
每日圈数 14.586471 14.586445
详细信息
固有亮度:
8
最大亮度:
6.7
平衡模式:
三轴稳定
覆盖范围:
全球
运营商:
轨道通信公司
运营商所在国:
美国
使用方式:
暂无
卫星简介
轨道通信FM(Orbcomm FM)是一系列低地球轨道通信卫星,由美国卫星通信公司 Orbcomm运营。 截至2015年12月,已有63颗此类卫星绕地球运行。该卫星仍在工作。
2D轨道图
3D轨道图
轨道高度分析图
轨道倾角分析图
轨道综合分析图
查看轨道综合分析图